Regional Weather Roundup
Issued by NWS Charleston, WV

Home | Current Version | Previous Version | Text Only | Print | Product List | Glossary On
Versions: 1 2 3 4 5 6 7 8 9 10 11 12 13 14 15 16 17 18 19 20 21 22 23 24 25 26 27 28 29 30 31 32 33 34 35 36 37 38 39 40 41 42 43 44 45 46 47 48 49 50
000
ASUS41 KRLX 082310
RWRRLX
West Virginia Regional Weather Roundup
National Weather Service Charleston WV
600 PM EST MON FEB 08 2016

Note: "fair" indicates few or no clouds below 12,000 feet with no
significant weather and/or obstructions to visibility.

WVZ003-090000-
Northern Panhandle of West Virginia

CITY           SKY/WX    TMP DP  RH WIND       PRES   REMARKS
WHEELING       CLOUDY    34  31  88 SW9       29.60R
$$

WVZ009-090000-
Northwest West Virginia

CITY           SKY/WX    TMP DP  RH WIND       PRES   REMARKS
PARKERSBURG    CLOUDY    34  32  92 CALM      29.65F
$$

WVZ006-090000-
Western West Virginia

CITY           SKY/WX    TMP DP  RH WIND       PRES   REMARKS
HUNTINGTON       N/A     36  30  79 SW7       29.66S
$$

WVZ015-090000-
West Central West Virginia

CITY           SKY/WX    TMP DP  RH WIND       PRES   REMARKS
CHARLESTON     LGT SNOW  33  31  92 W8        29.66R FOG
$$

WVZ022-031-090000-
North Central West Virginia

CITY           SKY/WX    TMP DP  RH WIND       PRES   REMARKS
CLARKSBURG     CLOUDY    36  32  85 W7        29.61R
MORGANTOWN     CLOUDY    37  31  78 SW5       29.61S
$$

WVZ025-035-042-045-090000-
Southern West Virginia

CITY           SKY/WX    TMP DP  RH WIND       PRES   REMARKS
BECKLEY        CLOUDY    31  27  85 W12       29.61R
LOGAN          CLOUDY    34  30  86 W8        29.65S
BLUEFIELD      SNOW      30  28  92 W12G22    29.62R VSB 1/2
LEWISBURG        N/A     35  33  94 CALM      29.59R
$$

WVZ047-090000-
Northern Mountains of West Virginia

CITY           SKY/WX    TMP DP  RH WIND       PRES   REMARKS
ELKINS         CLOUDY    35  30  82 MISG      29.58R
$$

WVZ052-090000-
Eastern Panhandle of West Virginia

CITY           SKY/WX    TMP DP  RH WIND       PRES   REMARKS
MARTINSBURG    CLOUDY    41  23  48 CALM      29.64S
PETERSBURG     CLOUDY    43  30  60 CALM      29.62S
$$



USA.gov is the U.S. government's official web portal to all federal, state and local government web resources and services.